CW8593 Weather Reports


Display with metric or nautical units.
time (UTC)temp
F
wind
direction
speed
MPH
gust
MPH
rain 1hr
in
rain 24hr
in
rain mn
in
humidity
%
barometer
mb
20170922003951 69 314 1.0 4.0 0.00 0.00 0.00 65 1018.3
20170922003051 69 314 2.0 5.0 0.00 0.00 0.00 65 1018.2
20170922002151 69 270 2.0 6.0 0.00 0.00 0.00 65 1018.3
20170922001251 69 244 1.0 4.0 0.00 0.00 0.00 64 1018.3
20170922000351 69 243 0.0 2.0 0.00 0.00 0.00 65 1018.3
20170921235451 68 0 1.0 0.0 0.00 0.00 0.00 65 1018.2
20170921234551 68 242 1.0 3.0 0.00 0.00 0.00 65 1018.2
20170921233651 69 242 0.0 2.0 0.00 0.00 0.00 65 1018.2
20170921232751 69 0 0.0 0.0 0.00 0.00 0.00 66 1018.1
20170921231851 69 242 0.0 1.0 0.00 0.00 0.00 66 1018.0
20170921230951 69 242 0.0 1.0 0.00 0.00 0.00 65 1018.1
20170921230051 69 242 0.0 2.0 0.00 0.00 0.00 65 1018.0
20170921225151 69 242 0.0 2.0 0.00 0.00 0.00 66 1017.9
20170921224251 69 242 0.0 3.0 0.00 0.00 0.00 66 1017.9
20170921223351 69 242 0.0 1.0 0.00 0.00 0.00 66 1017.9
20170921222451 70 0 0.0 0.0 0.00 0.00 0.00 67 1017.8
20170921221550 70 242 0.0 1.0 0.00 0.00 0.00 67 1017.8
20170921220651 70 242 0.0 1.0 0.00 0.00 0.00 67 1017.8
20170921215751 70 0 0.0 0.0 0.00 0.00 0.00 67 1017.7
20170921214851 70 0 0.0 0.0 0.00 0.00 0.00 67 1017.8
20170921213950 70 0 0.0 0.0 0.00 0.00 0.00 67 1017.6
20170921213051 70 0 0.0 0.0 0.00 0.00 0.00 67 1017.6
20170921212150 71 0 0.0 0.0 0.00 0.00 0.00 67 1017.6
20170921211250 71 0 0.0 0.0 0.00 0.00 0.00 67 1017.5
20170921210350 71 242 1.0 3.0 0.00 0.00 0.00 67 1017.4
20170921205450 71 242 1.0 4.0 0.00 0.00 0.00 67 1017.4
20170921204550 71 242 0.0 2.0 0.00 0.00 0.00 67 1017.4
20170921203650 71 242 1.0 2.0 0.00 0.00 0.00 67 1017.3
20170921202751 71 242 1.0 3.0 0.00 0.00 0.00 67 1017.2
20170921201850 71 242 0.0 3.0 0.00 0.00 0.00 67 1017.2
20170921200950 72 242 0.0 2.0 0.00 0.00 0.00 67 1017.2
20170921200050 72 242 0.0 2.0 0.00 0.00 0.00 67 1017.1
20170921195151 72 242 1.0 3.0 0.00 0.00 0.00 67 1017.0
20170921194250 72 241 2.0 5.0 0.00 0.00 0.00 67 1016.9
20170921193350 73 241 1.0 5.0 0.00 0.00 0.00 67 1016.9
20170921192450 73 242 2.0 5.0 0.00 0.00 0.00 67 1016.8
20170921191550 73 242 2.0 6.0 0.00 0.00 0.00 67 1016.7
20170921190650 73 241 3.0 8.0 0.00 0.00 0.00 68 1016.6
20170921185750 73 221 3.0 7.0 0.00 0.00 0.00 67 1016.6
20170921184851 73 221 3.0 9.0 0.00 0.00 0.00 67 1016.5
20170921183950 73 241 4.0 8.0 0.00 0.00 0.00 68 1016.4
20170921183050 73 232 4.0 10.0 0.00 0.00 0.00 68 1016.2
20170921182150 73 221 4.0 10.0 0.00 0.00 0.00 68 1016.2
20170921181250 73 217 4.0 9.0 0.00 0.00 0.00 67 1016.1
20170921180350 73 215 5.0 9.0 0.00 0.00 0.00 67 1016.2
20170921175450 74 216 5.0 10.0 0.00 0.00 0.00 67 1016.1
20170921174550 74 227 4.0 12.0 0.00 0.00 0.00 67 1016.0
20170921173650 74 222 5.0 10.0 0.00 0.00 0.00 67 1015.9
20170921172750 74 214 5.0 12.0 0.00 0.00 0.00 68 1015.8
20170921171850 74 219 7.0 15.0 0.00 0.00 0.00 67 1015.8
20170921170950 74 216 7.0 13.0 0.00 0.00 0.00 68 1015.8
20170921170050 74 208 8.0 15.0 0.00 0.00 0.00 68 1015.7
20170921165150 74 215 7.0 16.0 0.00 0.00 0.00 68 1015.7
20170921164250 74 207 7.0 14.0 0.00 0.00 0.00 69 1015.6
20170921163350 74 218 7.0 15.0 0.00 0.00 0.00 69 1015.7
20170921162450 75 219 8.0 15.0 0.00 0.00 0.00 69 1015.7
20170921161550 75 208 8.0 18.0 0.00 0.00 0.00 69 1015.6
20170921160650 75 208 8.0 16.0 0.00 0.00 0.00 69 1015.6
20170921155750 75 203 9.0 18.0 0.00 0.00 0.00 69 1015.6
20170921154850 75 211 9.0 18.0 0.00 0.00 0.00 69 1015.6
20170921153950 76 218 8.0 18.0 0.00 0.00 0.00 68 1015.6
20170921153050 76 220 8.0 19.0 0.00 0.00 0.00 68 1015.6
20170921152150 76 228 8.0 17.0 0.00 0.00 0.00 68 1015.6
20170921151250 76 228 7.0 18.0 0.00 0.00 0.00 68 1015.6
20170921150350 75 221 8.0 16.0 0.00 0.00 0.00 69 1015.7
20170921145450 75 219 8.0 18.0 0.00 0.00 0.00 69 1015.7
20170921144550 76 219 8.0 15.0 0.00 0.00 0.00 68 1015.6
20170921143650 75 211 9.0 18.0 0.00 0.00 0.00 69 1015.7
20170921142751 76 210 10.0 18.0 0.00 0.00 0.00 69 1015.7
20170921141850 75 203 9.0 19.0 0.00 0.00 0.00 69 1015.7
20170921140950 76 214 8.0 18.0 0.00 0.00 0.00 69 1015.7
20170921140050 76 213 8.0 17.0 0.00 0.00 0.00 68 1015.9
20170921135150 76 217 8.0 18.0 0.00 0.00 0.00 68 1015.9
20170921134250 76 212 8.0 17.0 0.00 0.00 0.00 68 1016.0
20170921133350 76 217 8.0 19.0 0.00 0.00 0.00 69 1016.2
20170921132450 76 215 8.0 16.0 0.00 0.00 0.00 69 1016.2
20170921131550 76 219 9.0 20.0 0.00 0.00 0.00 68 1016.2
20170921130650 76 214 7.0 18.0 0.00 0.00 0.00 68 1016.4
20170921125750 76 198 6.0 16.0 0.00 0.00 0.00 68 1016.4
20170921124850 76 181 6.0 16.0 0.00 0.00 0.00 69 1016.5
20170921123950 76 208 5.0 14.0 0.00 0.00 0.00 69 1016.6
20170921123050 76 192 6.0 13.0 0.00 0.00 0.00 69 1016.6
20170921122150 76 193 6.0 14.0 0.00 0.00 0.00 69 1016.7
20170921121250 76 209 7.0 14.0 0.00 0.00 0.00 69 1016.7
20170921120350 75 189 7.0 15.0 0.00 0.00 0.00 69 1016.9
20170921115450 75 167 7.0 15.0 0.00 0.00 0.00 69 1017.0
20170921114550 75 159 7.0 12.0 0.00 0.00 0.00 69 1017.1
20170921113650 75 156 7.0 15.0 0.00 0.00 0.00 69 1017.1
20170921112750 75 163 6.0 13.0 0.00 0.00 0.00 69 1017.3
20170921111849 75 161 6.0 11.0 0.00 0.00 0.00 69 1017.2
20170921110950 75 153 6.0 10.0 0.00 0.00 0.00 69 1017.3
20170921110049 75 172 6.0 12.0 0.00 0.00 0.00 69 1017.4
20170921105150 74 152 6.0 13.0 0.00 0.00 0.00 69 1017.3
20170921104249 75 166 4.0 11.0 0.00 0.00 0.00 69 1017.4
20170921103401 75 163 4.0 8.0 0.00 0.00 0.00 69 1017.5
20170921102450 74 160 5.0 9.0 0.00 0.00 0.00 69 1017.6
20170921101550 74 151 3.0 8.0 0.00 0.00 0.00 69 1017.6
20170921100649 74 143 3.0 7.0 0.00 0.00 0.00 69 1017.6
20170921095749 73 128 3.0 8.0 0.00 0.00 0.00 69 1017.7
20170921094849 73 137 3.0 7.0 0.00 0.00 0.00 69 1017.7
20170921093949 73 110 3.0 7.0 0.00 0.00 0.00 69 1017.7
20170921093049 72 105 4.0 8.0 0.00 0.00 0.00 69 1017.7
20170921092149 72 102 4.0 8.0 0.00 0.00 0.00 69 1017.7
20170921091249 72 111 3.0 8.0 0.00 0.00 0.00 69 1017.7
20170921090349 72 101 3.0 10.0 0.00 0.00 0.00 69 1017.7
20170921085449 72 86 1.0 7.0 0.00 0.00 0.00 69 1017.7
20170921084551 72 57 1.0 4.0 0.00 0.00 0.00 69 1017.6
20170921083649 72 57 1.0 3.0 0.00 0.00 0.00 69 1017.7
20170921082749 72 31 1.0 5.0 0.00 0.00 0.00 69 1017.7
20170921081849 72 314 1.0 2.0 0.00 0.00 0.00 69 1017.6
20170921080949 71 314 0.0 3.0 0.00 0.00 0.00 69 1017.6
20170921080049 71 314 0.0 2.0 0.00 0.00 0.00 69 1017.5
20170921075149 70 314 0.0 1.0 0.00 0.00 0.00 70 1017.4
20170921074249 70 314 1.0 3.0 0.00 0.00 0.00 69 1017.3
20170921073349 69 314 1.0 3.0 0.00 0.00 0.00 69 1017.3
20170921072449 69 312 1.0 3.0 0.00 0.00 0.00 69 1017.2
20170921071549 68 312 1.0 3.0 0.00 0.00 0.00 69 1017.1
20170921070649 68 312 1.0 3.0 0.00 0.00 0.00 68 1017.1
20170921065749 67 311 0.0 4.0 0.00 0.00 0.00 68 1017.0
20170921064849 67 0 0.0 0.0 0.00 0.00 0.00 67 1017.0
20170921063949 66 311 1.0 3.0 0.00 0.00 0.00 67 1017.0
20170921063049 66 311 0.0 4.0 0.00 0.00 0.00 67 1016.8
20170921062149 65 311 1.0 2.0 0.00 0.00 0.00 67 1016.8
20170921060349 65 311 0.0 3.0 0.00 0.00 0.00 67 1016.8
20170921055449 65 312 0.0 1.0 0.00 0.00 0.00 67 1016.7
20170921054549 65 311 0.0 1.0 0.00 0.00 0.00 67 1016.7
20170921053649 64 312 0.0 1.0 0.00 0.00 0.00 67 1016.6
20170921052749 64 0 0.0 0.0 0.00 0.00 0.00 67 1016.6
20170921051849 64 0 0.0 0.0 0.00 0.00 0.00 67 1016.7
20170921050949 64 311 0.0 1.0 0.00 0.00 0.00 67 1016.6
20170921050049 64 311 0.0 1.0 0.00 0.00 0.00 68 1016.5
20170921045149 64 0 0.0 0.0 0.00 0.00 0.00 68 1016.5
20170921044249 65 0 0.0 0.0 0.00 0.00 0.00 68 1016.4
20170921043349 65 0 0.0 0.0 0.00 0.00 0.00 68 1016.4
20170921042449 65 311 0.0 2.0 0.00 0.00 0.00 68 1016.4
20170921041549 64 0 0.0 0.0 0.00 0.00 0.00 68 1016.4
20170921040649 65 0 0.0 0.0 0.00 0.00 0.00 68 1016.5
20170921035749 65 0 0.0 0.0 0.00 0.00 0.00 68 1016.5
20170921034849 65 0 0.0 0.0 0.00 0.00 0.00 68 1016.6
20170921033949 65 311 1.0 3.0 0.00 0.00 0.00 68 1016.6
20170921033049 64 311 0.0 3.0 0.00 0.00 0.00 68 1016.7
20170921032149 64 310 0.0 1.0 0.00 0.00 0.00 68 1016.7
20170921031249 64 0 0.0 0.0 0.00 0.00 0.00 68 1016.7
20170921030349 64 312 0.0 1.0 0.00 0.00 0.00 69 1016.7
20170921025449 64 0 0.0 0.0 0.00 0.00 0.00 69 1016.7
20170921024549 64 0 1.0 0.0 0.00 0.00 0.00 69 1016.8
20170921023649 64 311 0.0 2.0 0.00 0.00 0.00 69 1016.8
20170921022749 64 311 0.0 2.0 0.00 0.00 0.00 69 1016.8
20170921021849 64 310 0.0 1.0 0.00 0.00 0.00 69 1016.9
20170921020949 64 0 0.0 0.0 0.00 0.00 0.00 70 1016.9
20170921020049 64 0 0.0 0.0 0.00 0.00 0.00 70 1017.0
20170921015149 64 311 0.0 1.0 0.00 0.00 0.00 70 1017.2
20170921014249 65 311 0.0 2.0 0.00 0.00 0.00 70 1017.2
20170921013349 65 311 0.0 3.0 0.00 0.00 0.00 70 1017.2
20170921012449 65 311 1.0 3.0 0.00 0.00 0.00 70 1017.3
20170921011549 65 310 1.0 4.0 0.00 0.00 0.00 70 1017.4
20170921010649 65 310 2.0 4.0 0.00 0.00 0.00 70 1017.4
20170921005749 65 310 3.0 6.0 0.00 0.00 0.00 70 1017.5
20170921004849 65 309 3.0 5.0 0.00 0.00 0.00 70 1017.5